軌道要素
Epoch 2024 Mar. 31.0 TT = JDT 2460400.5
T 2025 Mar. 9.23674 TT Rudenko
q 3.2886884 (2000.0) P Q
n 0.11168743 Peri. 208.60168 +0.86652197 +0.49106206
a 4.2703798 Node 121.71533 -0.43559831 +0.83145698
e 0.2298839 Incl. 6.03459 -0.24370839 +0.25987947
P 8.82
>From 239 observations 2007 Aug. 16-2024 May 12, mean residual 0".6.
|